Year,Month,Day,Hour,Minute,Value (Times are PST for windgust in km/hr)
2018,06,29,00,00,1.60
2018,06,29,00,01,1.60
2018,06,29,00,03,1.60
2018,06,29,00,06,1.60
2018,06,29,00,07,1.60
2018,06,29,00,08,1.60
2018,06,29,00,09,1.60
2018,06,29,00,10,1.60
2018,06,29,00,12,1.60
2018,06,29,00,13,1.60
2018,06,29,00,14,1.60
2018,06,29,00,15,1.60
2018,06,29,00,16,1.60
2018,06,29,00,17,1.60
2018,06,29,00,18,1.60
2018,06,29,00,19,1.60
2018,06,29,00,20,1.60
2018,06,29,00,21,1.60
2018,06,29,00,22,3.20
2018,06,29,00,23,3.20
2018,06,29,00,24,4.80
2018,06,29,00,25,3.20
2018,06,29,00,26,1.60
2018,06,29,00,27,3.20
2018,06,29,00,28,1.60
2018,06,29,00,30,1.60
2018,06,29,00,32,6.40
2018,06,29,00,33,4.80
2018,06,29,00,34,3.20
2018,06,29,00,35,1.60
2018,06,29,00,36,4.80
2018,06,29,00,37,3.20
2018,06,29,00,38,3.20
2018,06,29,00,39,1.60
2018,06,29,00,40,1.60
2018,06,29,00,41,1.60
2018,06,29,00,42,1.60
2018,06,29,00,43,1.60
2018,06,29,00,44,1.60
2018,06,29,00,45,1.60
2018,06,29,00,46,1.60
2018,06,29,00,47,1.60
2018,06,29,00,48,1.60
2018,06,29,00,49,1.60
2018,06,29,00,50,1.60
2018,06,29,00,51,1.60
2018,06,29,00,52,1.60
2018,06,29,00,53,1.60
2018,06,29,00,54,1.60
2018,06,29,00,55,1.60
2018,06,29,00,56,1.60
2018,06,29,00,58,1.60
2018,06,29,00,59,1.60
2018,06,29,01,00,1.60
2018,06,29,01,05,1.60
2018,06,29,01,07,1.60
2018,06,29,01,08,1.60
2018,06,29,01,09,1.60
2018,06,29,01,10,1.60
2018,06,29,01,11,1.60
2018,06,29,01,12,1.60
2018,06,29,01,13,1.60
2018,06,29,01,17,1.60
2018,06,29,01,18,1.60
2018,06,29,01,20,1.60
2018,06,29,01,21,1.60
2018,06,29,01,22,3.20
2018,06,29,01,23,3.20
2018,06,29,01,24,1.60
2018,06,29,01,25,1.60
2018,06,29,01,34,1.60
2018,06,29,01,35,1.60
2018,06,29,01,36,1.60
2018,06,29,01,37,1.60
2018,06,29,01,38,1.60
2018,06,29,01,39,1.60
2018,06,29,01,48,1.60
2018,06,29,01,49,1.60
2018,06,29,01,50,1.60
2018,06,29,01,55,1.60
2018,06,29,01,56,1.60
2018,06,29,01,59,1.60
2018,06,29,02,00,1.60
2018,06,29,02,01,1.60
2018,06,29,02,02,1.60
2018,06,29,02,03,1.60
2018,06,29,02,04,1.60
2018,06,29,02,16,1.60
2018,06,29,02,17,1.60
2018,06,29,02,18,1.60
2018,06,29,02,19,1.60
2018,06,29,02,20,1.60
2018,06,29,02,21,1.60
2018,06,29,02,22,1.60
2018,06,29,02,23,1.60
2018,06,29,02,24,1.60
2018,06,29,02,25,1.60
2018,06,29,02,27,1.60
2018,06,29,02,28,1.60
2018,06,29,02,36,1.60
2018,06,29,02,37,1.60
2018,06,29,02,38,3.20
2018,06,29,02,39,3.20
2018,06,29,02,40,3.20
2018,06,29,02,41,1.60
2018,06,29,02,42,1.60
2018,06,29,02,43,1.60
2018,06,29,02,44,1.60
2018,06,29,02,45,1.60
2018,06,29,02,46,1.60
2018,06,29,02,48,1.60
2018,06,29,02,49,1.60
2018,06,29,02,52,1.60
2018,06,29,03,00,1.60
2018,06,29,03,01,1.60
2018,06,29,03,04,1.60
2018,06,29,03,05,1.60
2018,06,29,03,06,1.60
2018,06,29,03,07,1.60
2018,06,29,03,08,3.20
2018,06,29,03,09,1.60
2018,06,29,03,10,1.60
2018,06,29,03,17,1.60
2018,06,29,03,18,1.60
2018,06,29,03,19,1.60
2018,06,29,03,20,1.60
2018,06,29,03,24,1.60
2018,06,29,03,29,1.60
2018,06,29,03,30,1.60
2018,06,29,03,34,1.60
2018,06,29,03,35,1.60
2018,06,29,03,36,1.60
2018,06,29,03,37,1.60
2018,06,29,03,38,1.60
2018,06,29,03,45,1.60
2018,06,29,03,46,1.60
2018,06,29,03,47,1.60
2018,06,29,03,48,1.60
2018,06,29,03,49,1.60
2018,06,29,03,50,1.60
2018,06,29,03,51,1.60
2018,06,29,03,52,1.60
2018,06,29,03,59,1.60
2018,06,29,04,02,1.60
2018,06,29,04,03,1.60
2018,06,29,04,04,1.60
2018,06,29,04,05,1.60
2018,06,29,04,06,1.60
2018,06,29,04,07,1.60
2018,06,29,04,08,1.60
2018,06,29,04,18,1.60
2018,06,29,04,19,1.60
2018,06,29,04,20,1.60
2018,06,29,04,21,1.60
2018,06,29,04,22,1.60
2018,06,29,04,34,1.60
2018,06,29,04,38,1.60
2018,06,29,04,39,1.60
2018,06,29,04,40,1.60
2018,06,29,04,47,1.60
2018,06,29,04,48,1.60
2018,06,29,04,49,1.60
2018,06,29,04,50,1.60
2018,06,29,04,51,1.60
2018,06,29,04,52,1.60
2018,06,29,04,53,1.60
2018,06,29,04,54,1.60
2018,06,29,04,55,1.60
2018,06,29,04,56,1.60
2018,06,29,04,57,1.60
2018,06,29,05,12,1.60
2018,06,29,05,15,1.60
2018,06,29,05,16,1.60
2018,06,29,05,20,1.60
2018,06,29,05,21,1.60
2018,06,29,05,24,1.60
2018,06,29,05,33,1.60
2018,06,29,05,34,1.60
2018,06,29,05,39,1.60
2018,06,29,05,40,1.60
2018,06,29,05,41,1.60
2018,06,29,05,42,1.60
2018,06,29,05,43,1.60
2018,06,29,05,45,1.60
2018,06,29,05,46,1.60
2018,06,29,05,47,1.60
2018,06,29,05,50,1.60
2018,06,29,05,54,1.60
2018,06,29,05,55,1.60
2018,06,29,05,56,1.60
2018,06,29,06,00,1.60
2018,06,29,06,01,1.60
2018,06,29,06,02,1.60
2018,06,29,06,03,1.60
2018,06,29,06,06,1.60
2018,06,29,06,10,1.60
2018,06,29,06,11,1.60
2018,06,29,06,12,1.60
2018,06,29,06,13,1.60
2018,06,29,06,14,1.60
2018,06,29,06,15,1.60
2018,06,29,06,16,1.60
2018,06,29,06,17,1.60
2018,06,29,06,18,1.60
2018,06,29,06,19,1.60
2018,06,29,06,20,1.60
2018,06,29,06,21,1.60
2018,06,29,06,22,1.60
2018,06,29,06,23,1.60
2018,06,29,06,24,1.60
2018,06,29,06,25,1.60
2018,06,29,06,26,1.60
2018,06,29,06,31,1.60
2018,06,29,06,32,1.60
2018,06,29,06,33,1.60
2018,06,29,06,34,1.60
2018,06,29,06,41,1.60
2018,06,29,06,42,1.60
2018,06,29,06,43,1.60
2018,06,29,06,44,1.60
2018,06,29,06,45,1.60
2018,06,29,06,46,1.60
2018,06,29,06,47,1.60
2018,06,29,06,48,1.60
2018,06,29,06,52,3.20
2018,06,29,06,53,3.20
2018,06,29,06,54,1.60
2018,06,29,06,55,1.60
2018,06,29,06,56,1.60
2018,06,29,06,57,1.60
2018,06,29,06,58,1.60
2018,06,29,06,59,1.60
2018,06,29,07,00,1.60
2018,06,29,07,01,1.60
2018,06,29,07,02,1.60
2018,06,29,07,05,1.60
2018,06,29,07,06,1.60
2018,06,29,07,08,1.60
2018,06,29,07,09,1.60
2018,06,29,07,10,1.60
2018,06,29,07,11,1.60
2018,06,29,07,12,1.60
2018,06,29,07,13,1.60
2018,06,29,07,15,1.60
2018,06,29,07,16,1.60
2018,06,29,07,18,1.60
2018,06,29,07,20,1.60
2018,06,29,07,21,1.60
2018,06,29,07,27,1.60
2018,06,29,07,30,1.60
2018,06,29,07,31,1.60
2018,06,29,07,32,1.60
2018,06,29,07,33,1.60
2018,06,29,07,34,1.60
2018,06,29,07,36,1.60
2018,06,29,07,37,1.60
2018,06,29,07,38,1.60
2018,06,29,07,39,1.60
2018,06,29,07,40,1.60
2018,06,29,07,41,1.60
2018,06,29,07,42,1.60
2018,06,29,07,48,1.60
2018,06,29,07,50,1.60
2018,06,29,07,51,1.60
2018,06,29,07,52,1.60
2018,06,29,07,53,3.20
2018,06,29,07,54,1.60
2018,06,29,07,55,1.60
2018,06,29,07,56,1.60
2018,06,29,08,07,1.60
2018,06,29,08,08,1.60
2018,06,29,08,09,1.60
2018,06,29,08,10,1.60
2018,06,29,08,11,1.60
2018,06,29,08,12,1.60
2018,06,29,08,17,1.60
2018,06,29,08,18,1.60
2018,06,29,08,19,1.60
2018,06,29,08,20,1.60
2018,06,29,08,31,1.60
2018,06,29,08,34,1.60
2018,06,29,08,35,1.60
2018,06,29,08,36,1.60
2018,06,29,08,38,1.60
2018,06,29,08,39,3.20
2018,06,29,08,40,3.20
2018,06,29,08,41,3.20
2018,06,29,08,42,1.60
2018,06,29,08,43,3.20
2018,06,29,08,44,3.20
2018,06,29,08,45,1.60
2018,06,29,08,46,1.60
2018,06,29,08,47,1.60
2018,06,29,08,48,1.60
2018,06,29,08,49,1.60
2018,06,29,08,50,1.60
2018,06,29,08,51,1.60
2018,06,29,08,52,1.60
2018,06,29,08,53,1.60
2018,06,29,08,54,1.60
2018,06,29,08,55,1.60
2018,06,29,08,56,1.60
2018,06,29,08,57,1.60
2018,06,29,08,58,1.60
2018,06,29,09,01,1.60
2018,06,29,09,04,1.60
2018,06,29,09,05,1.60
2018,06,29,09,07,1.60
2018,06,29,09,10,1.60
2018,06,29,09,11,1.60
2018,06,29,09,13,1.60
2018,06,29,09,14,1.60
2018,06,29,09,16,1.60
2018,06,29,09,17,1.60
2018,06,29,09,18,1.60
2018,06,29,09,20,1.60
2018,06,29,09,21,1.60
2018,06,29,09,22,1.60
2018,06,29,09,23,1.60
2018,06,29,09,24,1.60
2018,06,29,09,25,1.60
2018,06,29,09,26,1.60
2018,06,29,09,28,3.20
2018,06,29,09,29,4.80
2018,06,29,09,30,4.80
2018,06,29,09,31,1.60
2018,06,29,09,32,1.60
2018,06,29,09,33,3.20
2018,06,29,09,34,3.20
2018,06,29,09,35,3.20
2018,06,29,09,36,3.20
2018,06,29,09,37,1.60
2018,06,29,09,38,4.80
2018,06,29,09,39,4.80
2018,06,29,09,40,3.20
2018,06,29,09,41,1.60
2018,06,29,09,42,3.20
2018,06,29,09,43,3.20
2018,06,29,09,44,1.60
2018,06,29,09,45,1.60
2018,06,29,09,47,3.20
2018,06,29,09,48,1.60
2018,06,29,09,49,1.60
2018,06,29,09,50,3.20
2018,06,29,09,51,1.60
2018,06,29,09,52,1.60
2018,06,29,09,53,1.60
2018,06,29,09,54,1.60
2018,06,29,09,55,3.20
2018,06,29,09,56,3.20
2018,06,29,09,57,3.20
2018,06,29,09,58,6.40
2018,06,29,09,59,1.60
2018,06,29,10,00,1.60
2018,06,29,10,01,3.20
2018,06,29,10,02,3.20
2018,06,29,10,03,3.20
2018,06,29,10,04,1.60
2018,06,29,10,05,1.60
2018,06,29,10,06,1.60
2018,06,29,10,07,1.60
2018,06,29,10,08,1.60
2018,06,29,10,09,1.60
2018,06,29,10,10,1.60
2018,06,29,10,11,1.60
2018,06,29,10,12,1.60
2018,06,29,10,13,1.60
2018,06,29,10,14,1.60
2018,06,29,10,15,3.20
2018,06,29,10,16,1.60
2018,06,29,10,17,1.60
2018,06,29,10,18,1.60
2018,06,29,10,21,1.60
2018,06,29,10,23,1.60
2018,06,29,10,24,1.60
2018,06,29,10,25,1.60
2018,06,29,10,27,1.60
2018,06,29,10,28,1.60
2018,06,29,10,29,3.20
2018,06,29,10,30,3.20
2018,06,29,10,31,1.60
2018,06,29,10,32,1.60
2018,06,29,10,33,1.60
2018,06,29,10,34,1.60
2018,06,29,10,35,1.60
2018,06,29,10,36,1.60
2018,06,29,10,37,6.40
2018,06,29,10,38,3.20
2018,06,29,10,39,1.60
2018,06,29,10,40,6.40
2018,06,29,10,41,6.40
2018,06,29,10,42,4.80
2018,06,29,10,43,4.80
2018,06,29,10,44,6.40
2018,06,29,10,45,6.40
2018,06,29,10,46,3.20
2018,06,29,10,47,4.80
2018,06,29,10,48,3.20
2018,06,29,10,49,1.60
2018,06,29,10,50,3.20
2018,06,29,10,51,3.20
2018,06,29,10,52,3.20
2018,06,29,10,53,1.60
2018,06,29,10,54,3.20
2018,06,29,10,55,1.60
2018,06,29,10,56,1.60
2018,06,29,10,57,6.40
2018,06,29,10,58,3.20
2018,06,29,10,59,4.80
2018,06,29,11,00,3.20
2018,06,29,11,01,4.80
2018,06,29,11,02,6.40
2018,06,29,11,03,8.10
2018,06,29,11,04,9.60
2018,06,29,11,05,4.80
2018,06,29,11,06,1.60
2018,06,29,11,07,6.40
2018,06,29,11,08,4.80
2018,06,29,11,09,4.80
2018,06,29,11,10,4.80
2018,06,29,11,11,3.20
2018,06,29,11,12,1.60
2018,06,29,11,13,3.20
2018,06,29,11,14,1.60
2018,06,29,11,15,4.80
2018,06,29,11,16,3.20
2018,06,29,11,17,4.80
2018,06,29,11,18,4.80
2018,06,29,11,19,3.20
2018,06,29,11,20,1.60
2018,06,29,11,21,3.20
2018,06,29,11,22,1.60
2018,06,29,11,23,1.60
2018,06,29,11,24,3.20
2018,06,29,11,25,1.60
2018,06,29,11,26,3.20
2018,06,29,11,27,4.80
2018,06,29,11,28,4.80
2018,06,29,11,29,4.80
2018,06,29,11,30,1.60
2018,06,29,11,31,3.20
2018,06,29,11,32,3.20
2018,06,29,11,33,3.20
2018,06,29,11,34,3.20
2018,06,29,11,35,1.60
2018,06,29,11,36,3.20
2018,06,29,11,37,3.20
2018,06,29,11,38,3.20
2018,06,29,11,39,3.20
2018,06,29,11,40,3.20
2018,06,29,11,41,6.40
2018,06,29,11,42,3.20
2018,06,29,11,43,3.20
2018,06,29,11,44,3.20
2018,06,29,11,45,3.20
2018,06,29,11,46,6.40
2018,06,29,11,47,4.80
2018,06,29,11,48,4.80
2018,06,29,11,49,6.40
2018,06,29,11,50,3.20
2018,06,29,11,51,1.60
2018,06,29,11,52,3.20
2018,06,29,11,53,6.40
2018,06,29,11,54,1.60
2018,06,29,11,55,1.60
2018,06,29,11,56,8.10
2018,06,29,11,57,6.40
2018,06,29,11,58,4.80
2018,06,29,11,59,4.80
2018,06,29,12,00,4.80
2018,06,29,12,01,3.20
2018,06,29,12,02,1.60
2018,06,29,12,03,1.60
2018,06,29,12,04,1.60
2018,06,29,12,05,3.20
2018,06,29,12,06,8.10
2018,06,29,12,07,4.80
2018,06,29,12,08,8.10
2018,06,29,12,09,4.80
2018,06,29,12,10,6.40
2018,06,29,12,11,6.40
2018,06,29,12,12,6.40
2018,06,29,12,13,4.80
2018,06,29,12,14,4.80
2018,06,29,12,15,3.20
2018,06,29,12,16,3.20
2018,06,29,12,17,4.80
2018,06,29,12,18,3.20
2018,06,29,12,19,3.20
2018,06,29,12,20,3.20
2018,06,29,12,21,3.20
2018,06,29,12,22,3.20
2018,06,29,12,23,4.80
2018,06,29,12,24,4.80
2018,06,29,12,25,3.20
2018,06,29,12,26,3.20
2018,06,29,12,27,6.40
2018,06,29,12,28,6.40
2018,06,29,12,29,4.80
2018,06,29,12,30,6.40
2018,06,29,12,31,4.80
2018,06,29,12,32,6.40
2018,06,29,12,33,3.20
2018,06,29,12,34,4.80
2018,06,29,12,35,4.80
2018,06,29,12,36,1.60
2018,06,29,12,37,8.10
2018,06,29,12,38,6.40
2018,06,29,12,39,8.10
2018,06,29,12,40,3.20
2018,06,29,12,41,3.20
2018,06,29,12,42,3.20
2018,06,29,12,43,1.60
2018,06,29,12,44,3.20
2018,06,29,12,45,1.60
2018,06,29,12,46,1.60
2018,06,29,12,47,1.60
2018,06,29,12,48,1.60
2018,06,29,12,49,3.20
2018,06,29,12,50,3.20
2018,06,29,12,51,6.40
2018,06,29,12,52,4.80
2018,06,29,12,53,8.10
2018,06,29,12,54,4.80
2018,06,29,12,55,4.80
2018,06,29,12,56,3.20
2018,06,29,12,57,4.80
2018,06,29,12,58,3.20
2018,06,29,12,59,3.20
2018,06,29,13,00,1.60
2018,06,29,13,01,1.60
2018,06,29,13,02,4.80
2018,06,29,13,03,3.20
2018,06,29,13,04,6.40
2018,06,29,13,05,6.40
2018,06,29,13,06,8.10
2018,06,29,13,07,6.40
2018,06,29,13,08,6.40
2018,06,29,13,09,3.20
2018,06,29,13,10,3.20
2018,06,29,13,11,1.60
2018,06,29,13,12,6.40
2018,06,29,13,13,6.40
2018,06,29,13,14,1.60
2018,06,29,13,15,1.60
2018,06,29,13,16,6.40
2018,06,29,13,17,8.10
2018,06,29,13,18,6.40
2018,06,29,13,19,3.20
2018,06,29,13,20,6.40
2018,06,29,13,21,9.60
2018,06,29,13,22,9.60
2018,06,29,13,23,4.80
2018,06,29,13,24,4.80
2018,06,29,13,25,6.40
2018,06,29,13,26,4.80
2018,06,29,13,27,8.10
2018,06,29,13,28,4.80
2018,06,29,13,29,3.20
2018,06,29,13,30,4.80
2018,06,29,13,31,4.80
2018,06,29,13,32,6.40
2018,06,29,13,33,6.40
2018,06,29,13,34,3.20
2018,06,29,13,35,3.20
2018,06,29,13,36,8.10
2018,06,29,13,37,6.40
2018,06,29,13,38,6.40
2018,06,29,13,39,3.20
2018,06,29,13,40,6.40
2018,06,29,13,41,6.40
2018,06,29,13,42,4.80
2018,06,29,13,43,3.20
2018,06,29,13,44,6.40
2018,06,29,13,45,8.10
2018,06,29,13,46,6.40
2018,06,29,13,47,4.80
2018,06,29,13,48,4.80
2018,06,29,13,49,4.80
2018,06,29,13,50,4.80
2018,06,29,13,51,6.40
2018,06,29,13,52,4.80
2018,06,29,13,53,4.80
2018,06,29,13,54,3.20
2018,06,29,13,55,3.20
2018,06,29,13,56,4.80
2018,06,29,13,57,4.80
2018,06,29,13,58,9.60
2018,06,29,13,59,9.60
2018,06,29,14,00,9.60
2018,06,29,14,01,3.20
2018,06,29,14,02,4.80
2018,06,29,14,03,3.20
2018,06,29,14,04,3.20
2018,06,29,14,05,4.80
2018,06,29,14,06,4.80
2018,06,29,14,07,4.80
2018,06,29,14,08,9.60
2018,06,29,14,09,6.40
2018,06,29,14,10,8.10
2018,06,29,14,11,8.10
2018,06,29,14,12,8.10
2018,06,29,14,13,3.20
2018,06,29,14,14,4.80
2018,06,29,14,15,9.60
2018,06,29,14,16,8.10
2018,06,29,14,17,8.10
2018,06,29,14,18,8.10
2018,06,29,14,19,9.60
2018,06,29,14,20,11.30
2018,06,29,14,21,6.40
2018,06,29,14,22,4.80
2018,06,29,14,23,4.80
2018,06,29,14,24,6.40
2018,06,29,14,25,4.80
2018,06,29,14,26,3.20
2018,06,29,14,27,3.20
2018,06,29,14,28,9.60
2018,06,29,14,29,6.40
2018,06,29,14,30,4.80
2018,06,29,14,31,3.20
2018,06,29,14,32,1.60
2018,06,29,14,33,4.80
2018,06,29,14,34,4.80
2018,06,29,14,35,6.40
2018,06,29,14,36,6.40
2018,06,29,14,37,3.20
2018,06,29,14,38,3.20
2018,06,29,14,39,1.60
2018,06,29,14,40,4.80
2018,06,29,14,41,4.80
2018,06,29,14,42,4.80
2018,06,29,14,43,8.10
2018,06,29,14,44,8.10
2018,06,29,14,45,8.10
2018,06,29,14,46,9.60
2018,06,29,14,47,6.40
2018,06,29,14,48,11.30
2018,06,29,14,49,11.30
2018,06,29,14,50,6.40
2018,06,29,14,51,4.80
2018,06,29,14,52,4.80
2018,06,29,14,53,11.30
2018,06,29,14,54,6.40
2018,06,29,14,55,11.30
2018,06,29,14,56,6.40
2018,06,29,14,57,4.80
2018,06,29,14,58,9.60
2018,06,29,14,59,3.20
2018,06,29,15,00,8.10
2018,06,29,15,01,6.40
2018,06,29,15,02,6.40
2018,06,29,15,03,4.80
2018,06,29,15,04,6.40
2018,06,29,15,05,4.80
2018,06,29,15,06,4.80
2018,06,29,15,07,8.10
2018,06,29,15,08,4.80
2018,06,29,15,09,9.60
2018,06,29,15,10,9.60
2018,06,29,15,11,4.80
2018,06,29,15,12,4.80
2018,06,29,15,13,8.10
2018,06,29,15,14,8.10
2018,06,29,15,15,8.10
2018,06,29,15,16,11.30
2018,06,29,15,17,8.10
2018,06,29,15,18,4.80
2018,06,29,15,19,8.10
2018,06,29,15,20,6.40
2018,06,29,15,21,16.10
2018,06,29,15,22,6.40
2018,06,29,15,23,9.60
2018,06,29,15,24,8.10
2018,06,29,15,25,11.30
2018,06,29,15,26,6.40
2018,06,29,15,27,6.40
2018,06,29,15,28,11.30
2018,06,29,15,29,4.80
2018,06,29,15,30,8.10
2018,06,29,15,31,3.20
2018,06,29,15,32,11.30
2018,06,29,15,33,12.90
2018,06,29,15,34,9.60
2018,06,29,15,35,8.10
2018,06,29,15,36,11.30
2018,06,29,15,37,6.40
2018,06,29,15,38,4.80
2018,06,29,15,39,6.40
2018,06,29,15,40,6.40
2018,06,29,15,41,8.10
2018,06,29,15,42,11.30
2018,06,29,15,43,12.90
2018,06,29,15,44,4.80
2018,06,29,15,45,8.10
2018,06,29,15,46,4.80
2018,06,29,15,47,6.40
2018,06,29,15,48,9.60
2018,06,29,15,49,8.10
2018,06,29,15,50,4.80
2018,06,29,15,51,8.10
2018,06,29,15,52,3.20
2018,06,29,15,53,6.40
2018,06,29,15,54,6.40
2018,06,29,15,55,9.60
2018,06,29,15,56,11.30
2018,06,29,15,57,4.80
2018,06,29,15,58,9.60
2018,06,29,15,59,6.40
2018,06,29,16,00,9.60
2018,06,29,16,01,8.10
2018,06,29,16,02,6.40
2018,06,29,16,03,9.60
2018,06,29,16,04,4.80
2018,06,29,16,05,8.10
2018,06,29,16,06,11.30
2018,06,29,16,07,9.60
2018,06,29,16,08,6.40
2018,06,29,16,09,8.10
2018,06,29,16,10,3.20
2018,06,29,16,11,3.20
2018,06,29,16,12,9.60
2018,06,29,16,13,6.40
2018,06,29,16,14,12.90
2018,06,29,16,15,6.40
2018,06,29,16,16,4.80
2018,06,29,16,17,3.20
2018,06,29,16,18,1.60
2018,06,29,16,19,3.20
2018,06,29,16,20,4.80
2018,06,29,16,21,6.40
2018,06,29,16,22,11.30
2018,06,29,16,23,9.60
2018,06,29,16,24,4.80
2018,06,29,16,25,8.10
2018,06,29,16,26,8.10
2018,06,29,16,27,4.80
2018,06,29,16,28,6.40
2018,06,29,16,29,3.20
2018,06,29,16,30,6.40
2018,06,29,16,31,6.40
2018,06,29,16,32,8.10
2018,06,29,16,33,14.50
2018,06,29,16,34,8.10
2018,06,29,16,35,6.40
2018,06,29,16,36,11.30
2018,06,29,16,37,6.40
2018,06,29,16,38,6.40
2018,06,29,16,39,12.90
2018,06,29,16,40,8.10
2018,06,29,16,41,9.60
2018,06,29,16,42,11.30
2018,06,29,16,43,6.40
2018,06,29,16,44,3.20
2018,06,29,16,45,11.30
2018,06,29,16,46,11.30
2018,06,29,16,47,9.60
2018,06,29,16,48,11.30
2018,06,29,16,49,9.60
2018,06,29,16,50,12.90
2018,06,29,16,51,14.50
2018,06,29,16,52,6.40
2018,06,29,16,53,4.80
2018,06,29,16,54,3.20
2018,06,29,16,55,1.60
2018,06,29,16,56,4.80
2018,06,29,16,57,3.20
2018,06,29,16,58,3.20
2018,06,29,16,59,11.30
2018,06,29,17,00,6.40
2018,06,29,17,01,12.90
2018,06,29,17,02,4.80
2018,06,29,17,03,11.30
2018,06,29,17,04,9.60
2018,06,29,17,05,9.60
2018,06,29,17,06,4.80
2018,06,29,17,07,4.80
2018,06,29,17,08,8.10
2018,06,29,17,09,6.40
2018,06,29,17,10,4.80
2018,06,29,17,11,6.40
2018,06,29,17,12,6.40
2018,06,29,17,13,9.60
2018,06,29,17,14,4.80
2018,06,29,17,15,4.80
2018,06,29,17,16,6.40
2018,06,29,17,17,8.10
2018,06,29,17,18,3.20
2018,06,29,17,19,4.80
2018,06,29,17,20,3.20
2018,06,29,17,21,3.20
2018,06,29,17,22,3.20
2018,06,29,17,23,4.80
2018,06,29,17,24,6.40
2018,06,29,17,25,4.80
2018,06,29,17,26,4.80
2018,06,29,17,27,9.60
2018,06,29,17,28,6.40
2018,06,29,17,29,8.10
2018,06,29,17,30,6.40
2018,06,29,17,31,11.30
2018,06,29,17,32,14.50
2018,06,29,17,33,16.10
2018,06,29,17,34,16.10
2018,06,29,17,35,6.40
2018,06,29,17,36,6.40
2018,06,29,17,37,11.30
2018,06,29,17,38,8.10
2018,06,29,17,39,6.40
2018,06,29,17,40,3.20
2018,06,29,17,41,1.60
2018,06,29,17,42,6.40
2018,06,29,17,43,14.50
2018,06,29,17,44,9.60
2018,06,29,17,45,9.60
2018,06,29,17,46,8.10
2018,06,29,17,47,8.10
2018,06,29,17,48,4.80
2018,06,29,17,49,6.40
2018,06,29,17,50,8.10
2018,06,29,17,51,4.80
2018,06,29,17,52,8.10
2018,06,29,17,53,9.60
2018,06,29,17,54,8.10
2018,06,29,17,55,11.30
2018,06,29,17,56,11.30
2018,06,29,17,57,11.30
2018,06,29,17,58,11.30
2018,06,29,17,59,6.40
2018,06,29,18,00,11.30
2018,06,29,18,01,8.10
2018,06,29,18,02,11.30
2018,06,29,18,03,9.60
2018,06,29,18,04,12.90
2018,06,29,18,05,9.60
2018,06,29,18,06,6.40
2018,06,29,18,07,8.10
2018,06,29,18,08,6.40
2018,06,29,18,09,8.10
2018,06,29,18,10,8.10
2018,06,29,18,11,6.40
2018,06,29,18,12,3.20
2018,06,29,18,13,14.50
2018,06,29,18,14,11.30
2018,06,29,18,15,9.60
2018,06,29,18,16,4.80
2018,06,29,18,17,14.50
2018,06,29,18,18,11.30
2018,06,29,18,19,19.30
2018,06,29,18,20,11.30
2018,06,29,18,21,16.10
2018,06,29,18,22,11.30
2018,06,29,18,23,9.60
2018,06,29,18,24,17.70
2018,06,29,18,25,12.90
2018,06,29,18,26,8.10
2018,06,29,18,27,11.30
2018,06,29,18,28,12.90
2018,06,29,18,29,9.60
2018,06,29,18,30,6.40
2018,06,29,18,31,12.90
2018,06,29,18,32,14.50
2018,06,29,18,33,17.70
2018,06,29,18,34,11.30
2018,06,29,18,35,14.50
2018,06,29,18,36,11.30
2018,06,29,18,37,11.30
2018,06,29,18,38,11.30
2018,06,29,18,39,12.90
2018,06,29,18,40,12.90
2018,06,29,18,41,16.10
2018,06,29,18,42,11.30
2018,06,29,18,43,1.60
2018,06,29,18,44,6.40
2018,06,29,18,45,8.10
2018,06,29,18,46,14.50
2018,06,29,18,47,14.50
2018,06,29,18,48,8.10
2018,06,29,18,49,8.10
2018,06,29,18,50,12.90
2018,06,29,18,51,8.10
2018,06,29,18,52,9.60
2018,06,29,18,53,6.40
2018,06,29,18,54,6.40
2018,06,29,18,55,4.80
2018,06,29,18,56,6.40
2018,06,29,18,57,3.20
2018,06,29,18,58,3.20
2018,06,29,18,59,4.80
2018,06,29,19,00,4.80
2018,06,29,19,01,6.40
2018,06,29,19,02,8.10
2018,06,29,19,03,9.60
2018,06,29,19,04,8.10
2018,06,29,19,05,8.10
2018,06,29,19,06,6.40
2018,06,29,19,07,11.30
2018,06,29,19,08,6.40
2018,06,29,19,09,6.40
2018,06,29,19,10,6.40
2018,06,29,19,11,4.80
2018,06,29,19,12,3.20
2018,06,29,19,13,1.60
2018,06,29,19,14,8.10
2018,06,29,19,15,8.10
2018,06,29,19,16,9.60
2018,06,29,19,17,6.40
2018,06,29,19,18,3.20
2018,06,29,19,19,6.40
2018,06,29,19,20,6.40
2018,06,29,19,21,4.80
2018,06,29,19,22,3.20
2018,06,29,19,23,4.80
2018,06,29,19,24,11.30
2018,06,29,19,25,4.80
2018,06,29,19,26,4.80
2018,06,29,19,27,3.20
2018,06,29,19,28,3.20
2018,06,29,19,29,3.20
2018,06,29,19,30,4.80
2018,06,29,19,31,6.40
2018,06,29,19,32,4.80
2018,06,29,19,33,1.60
2018,06,29,19,34,3.20
2018,06,29,19,35,9.60
2018,06,29,19,36,6.40
2018,06,29,19,37,4.80
2018,06,29,19,38,8.10
2018,06,29,19,39,8.10
2018,06,29,19,40,4.80
2018,06,29,19,41,4.80
2018,06,29,19,42,6.40
2018,06,29,19,43,3.20
2018,06,29,19,44,4.80
2018,06,29,19,45,4.80
2018,06,29,19,46,4.80
2018,06,29,19,47,3.20
2018,06,29,19,48,9.60
2018,06,29,19,49,8.10
2018,06,29,19,50,6.40
2018,06,29,19,51,11.30
2018,06,29,19,52,11.30
2018,06,29,19,53,4.80
2018,06,29,19,54,6.40
2018,06,29,19,55,4.80
2018,06,29,19,56,6.40
2018,06,29,19,57,3.20
2018,06,29,19,58,1.60
2018,06,29,19,59,6.40
2018,06,29,20,00,6.40
2018,06,29,20,01,4.80
2018,06,29,20,02,11.30
2018,06,29,20,03,11.30
2018,06,29,20,04,3.20
2018,06,29,20,05,3.20
2018,06,29,20,06,3.20
2018,06,29,20,07,3.20
2018,06,29,20,08,1.60
2018,06,29,20,09,6.40
2018,06,29,20,10,8.10
2018,06,29,20,11,3.20
2018,06,29,20,12,3.20
2018,06,29,20,13,3.20
2018,06,29,20,14,4.80
2018,06,29,20,15,3.20
2018,06,29,20,16,1.60
2018,06,29,20,17,3.20
2018,06,29,20,18,3.20
2018,06,29,20,19,4.80
2018,06,29,20,20,6.40
2018,06,29,20,21,3.20
2018,06,29,20,22,3.20
2018,06,29,20,23,6.40
2018,06,29,20,24,3.20
2018,06,29,20,25,3.20
2018,06,29,20,26,3.20
2018,06,29,20,27,1.60
2018,06,29,20,28,1.60
2018,06,29,20,29,3.20
2018,06,29,20,30,3.20
2018,06,29,20,31,1.60
2018,06,29,20,32,3.20
2018,06,29,20,33,3.20
2018,06,29,20,34,3.20
2018,06,29,20,35,3.20
2018,06,29,20,36,1.60
2018,06,29,20,37,3.20
2018,06,29,20,38,3.20
2018,06,29,20,39,3.20
2018,06,29,20,40,1.60
2018,06,29,20,42,1.60
2018,06,29,20,43,3.20
2018,06,29,20,44,3.20
2018,06,29,20,45,4.80
2018,06,29,20,46,3.20
2018,06,29,20,47,3.20
2018,06,29,20,48,1.60
2018,06,29,20,49,3.20
2018,06,29,20,50,3.20
2018,06,29,20,51,1.60
2018,06,29,20,52,1.60
2018,06,29,20,53,1.60
2018,06,29,20,54,6.40
2018,06,29,20,55,4.80
2018,06,29,20,56,4.80
2018,06,29,20,57,3.20
2018,06,29,20,58,6.40
2018,06,29,20,59,4.80
2018,06,29,21,00,4.80
2018,06,29,21,01,4.80
2018,06,29,21,02,1.60
2018,06,29,21,03,1.60
2018,06,29,21,04,1.60
2018,06,29,21,05,1.60
2018,06,29,21,06,4.80
2018,06,29,21,07,6.40
2018,06,29,21,08,4.80
2018,06,29,21,09,3.20
2018,06,29,21,10,3.20
2018,06,29,21,11,3.20
2018,06,29,21,12,3.20
2018,06,29,21,13,3.20
2018,06,29,21,14,1.60
2018,06,29,21,15,1.60
2018,06,29,21,16,1.60
2018,06,29,21,17,3.20
2018,06,29,21,18,1.60
2018,06,29,21,19,3.20
2018,06,29,21,20,1.60
2018,06,29,21,21,1.60
2018,06,29,21,22,3.20
2018,06,29,21,23,3.20
2018,06,29,21,24,3.20
2018,06,29,21,25,1.60
2018,06,29,21,28,1.60
2018,06,29,21,29,1.60
2018,06,29,21,30,1.60
2018,06,29,21,31,1.60
2018,06,29,21,34,1.60
2018,06,29,21,35,1.60
2018,06,29,21,36,1.60
2018,06,29,21,37,1.60
2018,06,29,21,38,3.20
2018,06,29,21,39,1.60
2018,06,29,21,41,1.60
2018,06,29,21,42,1.60
2018,06,29,21,46,1.60
2018,06,29,21,47,1.60
2018,06,29,21,48,1.60
2018,06,29,21,49,1.60
2018,06,29,21,53,1.60
2018,06,29,21,55,1.60
2018,06,29,21,56,1.60
2018,06,29,21,57,1.60
2018,06,29,21,58,1.60
2018,06,29,21,59,1.60
2018,06,29,22,00,1.60
2018,06,29,22,01,1.60
2018,06,29,22,02,3.20
2018,06,29,22,03,3.20
2018,06,29,22,04,1.60
2018,06,29,22,05,1.60
2018,06,29,22,06,1.60
2018,06,29,22,08,1.60
2018,06,29,22,09,1.60
2018,06,29,22,12,1.60
2018,06,29,22,13,1.60
2018,06,29,22,14,1.60
2018,06,29,22,15,1.60
2018,06,29,22,16,1.60
2018,06,29,22,17,1.60
2018,06,29,22,18,1.60
2018,06,29,22,20,1.60
2018,06,29,22,21,1.60
2018,06,29,22,22,1.60
2018,06,29,22,24,1.60
2018,06,29,22,25,3.20
2018,06,29,22,26,1.60
2018,06,29,22,27,1.60
2018,06,29,22,28,1.60
2018,06,29,22,29,1.60
2018,06,29,22,30,3.20
2018,06,29,22,31,3.20
2018,06,29,22,32,1.60